EW1476 Weather Reports


time (UTC)temp
C
wind
direction
speed
KPH
gust
KPH
rain 1hr
cm
rain 24hr
cm
rain mn
cm
humidity
%
barometer
mb
20260504214509 22 217 1.6 3.2 0.00 0.00 0.00 38 1009.8
20260504213009 22 241 1.6 3.2 0.00 0.00 0.00 34 1010.0
20260504211503 22 191 0.0 6.4 0.00 0.00 0.00 37 1010.0
20260504210004 22 235 1.6 4.8 0.00 0.00 0.00 35 1010.1
20260504204503 22 170 1.6 3.2 0.00 0.00 0.00 36 1010.0
20260504203020 22 209 1.6 4.8 0.00 0.00 0.00 35 1010.1
20260504201508 21 207 0.0 4.8 0.00 0.00 0.00 36 1010.3
20260504200004 22 103 0.0 6.4 0.00 0.00 0.00 36 1010.6
20260504194503 22 147 1.6 6.4 0.00 0.00 0.00 40 1010.8
20260504193009 22 210 1.6 8.0 0.00 0.00 0.00 40 1011.0
20260504191503 22 226 1.6 4.8 0.00 0.00 0.00 37 1011.3
20260504190014 21 245 1.6 6.4 0.00 0.00 0.00 37 1011.5
20260504184512 21 300 3.2 6.4 0.00 0.00 0.00 38 1011.8
20260504183008 21 135 1.6 6.4 0.00 0.00 0.00 37 1011.9
20260504181503 21 238 1.6 3.2 0.00 0.00 0.00 37 1012.3
20260504180009 21 187 1.6 4.8 0.00 0.00 0.00 37 1012.5
20260504174520 20 155 0.0 6.4 0.00 0.00 0.00 39 1012.7
20260504173020 20 238 0.0 4.8 0.00 0.00 0.00 37 1012.8
20260504171512 20 165 1.6 6.4 0.00 0.00 0.00 38 1012.9
20260504081512 7 212 0.0 0.0 0.00 0.00 0.00 73 1015.5
20260504050024 4 272 0.0 0.0 0.00 0.00 0.00 79 1016.0
20260504044522 5 272 0.0 0.0 0.00 0.00 0.00 77 1015.9
20260504043022 5 272 0.0 0.0 0.00 0.00 0.00 77 1015.9
20260504041520 5 272 0.0 0.0 0.00 0.00 0.00 77 1015.9
20260504040018 5 272 0.0 0.0 0.00 0.00 0.00 79 1015.8
20260504034514 5 272 0.0 0.0 0.00 0.00 0.00 78 1015.7
20260504033029 5 272 0.0 0.0 0.00 0.00 0.00 77 1015.6
20260504031526 5 272 0.0 0.0 0.00 0.00 0.00 76 1015.3
20260504030035 5 272 0.0 0.0 0.00 0.00 0.00 73 1015.2
20260504024522 6 272 0.0 0.0 0.00 0.00 0.00 74 1015.3
20260504023020 6 272 0.0 0.0 0.00 0.00 0.00 71 1015.3
20260504021515 6 272 0.0 0.0 0.00 0.00 0.00 70 1015.3
20260504020029 7 272 0.0 0.0 0.00 0.00 0.00 68 1015.2
20260504014525 7 272 0.0 0.0 0.00 0.00 0.00 68 1015.3
20260504013026 8 272 0.0 0.0 0.00 0.00 0.00 61 1015.3
20260504011523 9 272 0.0 0.0 0.00 0.00 0.00 62 1015.2
20260504010020 10 272 0.0 0.0 0.00 0.00 0.00 51 1015.1
20260504004529 11 272 0.0 0.0 0.00 0.00 0.00 47 1015.0
20260504003028 12 272 0.0 0.0 0.00 0.00 0.00 42 1014.7
20260504001527 12 272 0.0 0.0 0.00 0.00 0.00 39 1014.6
20260504000026 13 271 0.0 0.0 0.00 0.00 0.00 37 1014.5
20260503234526 13 272 0.0 0.0 0.00 0.00 0.00 34 1014.4
20260503233022 14 272 0.0 3.2 0.00 0.00 0.00 33 1014.3
20260503231520 14 260 1.6 3.2 0.00 0.00 0.00 32 1014.1
20260503230014 15 272 0.0 3.2 0.00 0.00 0.00 31 1014.0
20260503224508 15 271 3.2 9.7 0.00 0.00 0.00 32 1014.1
20260503223010 15 306 1.6 6.4 0.00 0.00 0.00 32 1014.2
20260503221525 15 317 0.0 4.8 0.00 0.00 0.00 33 1014.1
20260503220034 15 315 3.2 9.7 0.00 0.00 0.00 31 1014.2